FENGYUN 1C DEB, 31898

Orbit data source: Space-Track

FENGYUN 1C DEB, 31898 is space debris in SSO originally from a launch on Mon, 10 May 1999 UTC launched from the Taiyaun Space Center, China (TSC). Fengyun 1C debris stems from the Chinese weather satellite Fengyun-1C, which was intentionally destroyed by a Chinese anti-satellite missile in 2007. This event dramatically increased the amount of space debris, with thousands of trackable fragments posing hazards to satellites and human spaceflight. The Fengyun 1C debris cloud has become a focal point in discussions about space sustainability and the need for international regulations to prevent the creation of new debris.

Loading next visibility...
Identifier
31898, 1999-025CKZ
Orbit
SSO
Country
Flag of CNCN / PRC
Related business
Manufacturer
Unknown
Mission
Spacecraft
Bus & Motor
Unknown
Mass
Unknown
Launch date (UTC)
1999-05-10 (27 years ago)
Launch vehicle
Unknown
Launch site
Taiyaun Space Center, China (TSC)
Object type
Payload
Rocket body
Debris
Shape & HBR
Unknown shape, 0.1 m
Radar Cross Section
Small (<0.1 m²)

Expand to show TLE details & history
Last TLE update: 23 hours ago

TLE from 23 hours ago
0 FENGYUN 1C DEB
1 31898U 99025CKZ 26207.94531813  .00003890  00000-0  55519-3 0  9993
2 31898  98.6814  92.5229 0137264 232.3931 126.4748 14.71112786690355
Epoch: 2026-07-26T22:41Z
TLE epoch observation values (Epoch: 2026-07-26T22:41:15.486Z)
Latitude
-0.00008°
Longitude
167.57242°
Altitude
718.772 km
Speed
7.465 km/s
True Right ascension
06h 10m 05s
True Declination
0° 00' 00"
Sunlit
Object was in daylight at epoch
Visualization orbit readout
Latitude
Unknown
Longitude
Unknown
Altitude
Unknown
Speed
Unknown
Apparent Right ascension
Unknown
Apparent Declination
Unknown
Sunlit
N/A
Visualization observer readout
Local Sidereal Time
10:53:58
Azimuth
Unknown
Elevation
Unknown
Doppler factor
Unknown
Orbital elements
Apogee altitude
751.141 km
Perigee altitude
558.072 km
Semi-major axis
7,032.743 km
Eccentricity
0.01373
Inclination
98.6814°
RAAN
92.5229°
Arg. of periapsis
232.3931°
True anomaly
127.72675°
Mean anomaly
126.4748°
Eccentric anomaly
127.10205°
Mean motion
3.68007 °/min
Orbital period
97.82 mins
BSTAR
0.00055519
Loading maneuver chart data...
Computing Atmospheric mass density...
Loading historical data...
Loading historical data...
Loading historical data...
Loading historical data...
Loading historical data...
Loading historical data...
Loading historical data...

Documentation

Showing up to 5 results
|